Location: Newark
(48.5667°N, 7.8167°E)
Time: 12:06:35
(UTC+00:00)

ISS - Pass Details

Date: 18 May 2021
Orbit: 419 x 422 km, 51.6° (Epoch: 25 June)

Event Time Altitude Azimuth Distance (km) Brightness Sun altitude
Rises 20:43:41 0° 255° (WSW) 2,366 0.4 -12.8°
Reaches altitude 10° 20:45:47 10° 258° (WSW) 1,504 -0.6 -13.0°
Maximum altitude 20:49:09 70° 342° (NNW) 451 -3.5 -13.3°
Drops below altitude 10° 20:52:32 10° 68° (ENE) 1,509 -1.1 -13.7°
Enters shadow 20:55:43 -4° 72° (ENE) 2,817 0.3 -14.0°
